Location: Unspecified
(44.0704°N, 88.6889°W)
Time: 13:55:14
(UTC+02:00)

Okean 3 - Pass Details

Date: 26 March 2019
Orbit: 576 x 602 km, 82.5° (Epoch: 24 April)

Event Time Altitude Azimuth Distance (km) Brightness Sun altitude
Exits shadow 11:26:58 - 193° (SSW) 2,233 6.1 -15.0°
Reaches altitude 10° 11:27:41 10° 194° (SSW) 1,939 5.8 -14.9°
Maximum altitude 11:31:58 73° 279° (W) 636 3.4 -14.1°
Drops below altitude 10° 11:36:18 10° 5° (N) 1,956 6.4 -13.4°
Sets 11:38:32 0° 7° (N) 2,863 7.3 -13.0°
